DO6HN-6 Weather Reports


Display with metric or nautical units.
time (UTC)temp
F
wind
direction
speed
MPH
gust
MPH
rain 1hr
in
rain 24hr
in
rain mn
in
humidity
%
barometer
mb
20210412001523 47 0.0 0.0 0.00 0.00 0.00 7 994.3
20210412000036 49 0.0 0.0 0.00 0.00 0.00 7 994.1
20210411234646 50 0.0 0.0 0.00 0.00 0.00 7 994.1
20210411233304 50 0.0 0.0 0.00 0.00 0.00 7 994.0
20210411232525 50 0.0 0.0 0.00 0.00 0.00 7 993.8
20210411230527 51 0.0 0.0 0.00 0.00 0.00 7 993.5
20210411225547 51 0.0 0.0 0.00 0.00 0.00 7 993.4
20210411223756 50 0.0 0.0 0.00 0.00 0.00 7 993.2
20210411222919 50 0.0 0.0 0.00 0.00 0.00 7 992.7
20210411220954 50 0.0 0.0 0.00 0.00 0.00 7 992.5
20210411220040 51 0.0 0.0 0.00 0.00 0.00 7 992.2
20210411214327 53 0.0 0.0 0.00 0.00 0.00 7 991.7
20210411213146 52 0.0 0.0 0.00 0.00 0.00 7 991.3
20210411211516 53 0.0 0.0 0.00 0.00 0.00 7 990.9
20210411210053 52 0.0 0.0 0.00 0.00 0.00 7 990.9
20210411204621 53 0.0 0.0 0.00 0.00 0.00 8 990.6
20210411203515 52 0.0 0.0 0.00 0.00 0.00 8 990.4
20210411202231 51 0.0 0.0 0.00 0.00 0.00 8 990.3
20210411200628 52 0.0 0.0 0.00 0.00 0.00 8 990.2
20210411195619 52 0.0 0.0 0.00 0.00 0.00 8 990.0
20210411193812 52 0.0 0.0 0.00 0.00 0.00 9 989.8
20210411192906 52 0.0 0.0 0.00 0.00 0.00 9 989.7
20210411190921 54 0.0 0.0 0.00 0.00 0.00 9 989.2
20210411190102 57 0.0 0.0 0.00 0.00 0.00 8 989.0
20210411184314 57 0.0 0.0 0.00 0.00 0.00 8 988.5
20210411183242 57 0.0 0.0 0.00 0.00 0.00 9 988.4
20210411181517 58 0.0 0.0 0.00 0.00 0.00 8 988.1
20210411180025 57 0.0 0.0 0.00 0.00 0.00 8 987.9
20210411174541 58 0.0 0.0 0.00 0.00 0.00 8 987.8
20210411173314 57 0.0 0.0 0.00 0.00 0.00 8 987.6
20210411172341 58 0.0 0.0 0.00 0.00 0.00 8 987.3
20210411170546 58 0.0 0.0 0.00 0.00 0.00 8 987.3
20210411165446 58 0.0 0.0 0.00 0.00 0.00 8 987.2
20210411163730 59 0.0 0.0 0.00 0.00 0.00 7 986.8
20210411162914 60 0.0 0.0 0.00 0.00 0.00 6 986.4
20210411161215 61 0.0 0.0 0.00 0.00 0.00 6 986.0
20210411155947 61 0.0 0.0 0.00 0.00 0.00 6 985.8
20210411154537 63 0.0 0.0 0.00 0.00 0.00 6 985.3
20210411153241 65 0.0 0.0 0.00 0.00 0.00 5 984.8
20210411152054 66 0.0 0.0 0.00 0.00 0.00 5 984.5
20210411150451 67 0.0 0.0 0.00 0.00 0.00 5 984.3
20210411145834 69 0.0 0.0 0.00 0.00 0.00 5 984.2
20210411143758 70 0.0 0.0 0.00 0.00 0.00 4 983.9
20210411142700 70 0.0 0.0 0.00 0.00 0.00 4 983.8
20210411141032 69 0.0 0.0 0.00 0.00 0.00 5 983.9
20210411135937 68 0.0 0.0 0.00 0.00 0.00 5 984.0
20210411134321 71 0.0 0.0 0.00 0.00 0.00 4 984.0
20210411133033 72 0.0 0.0 0.00 0.00 0.00 4 983.9
20210411131622 76 0.0 0.0 0.00 0.00 0.00 4 983.7
20210411130342 72 0.0 0.0 0.00 0.00 0.00 4 983.9
20210411125324 70 0.0 0.0 0.00 0.00 0.00 4 984.0
20210411123659 73 0.0 0.0 0.00 0.00 0.00 4 984.0
20210411122549 67 0.0 0.0 0.00 0.00 0.00 5 984.1
20210411120832 66 0.0 0.0 0.00 0.00 0.00 5 984.3
20210411115907 67 0.0 0.0 0.00 0.00 0.00 5 984.3
20210411114303 66 0.0 0.0 0.00 0.00 0.00 5 984.2
20210411112952 66 0.0 0.0 0.00 0.00 0.00 5 984.2
20210411111623 65 0.0 0.0 0.00 0.00 0.00 5 984.2
20210411110131 65 0.0 0.0 0.00 0.00 0.00 5 984.3
20210411105054 67 0.0 0.0 0.00 0.00 0.00 5 984.3
20210411103521 67 0.0 0.0 0.00 0.00 0.00 5 984.2
20210411102339 67 0.0 0.0 0.00 0.00 0.00 5 984.4
20210411100727 67 0.0 0.0 0.00 0.00 0.00 5 984.5
20210411095629 65 0.0 0.0 0.00 0.00 0.00 5 984.5
20210411094024 64 0.0 0.0 0.00 0.00 0.00 5 984.6
20210411092751 63 0.0 0.0 0.00 0.00 0.00 5 984.6
20210411091357 64 0.0 0.0 0.00 0.00 0.00 5 984.6
20210411090057 63 0.0 0.0 0.00 0.00 0.00 5 984.7
20210411084621 62 0.0 0.0 0.00 0.00 0.00 5 984.8
20210411083127 63 0.0 0.0 0.00 0.00 0.00 5 984.7
20210411081948 64 0.0 0.0 0.00 0.00 0.00 5 984.6
20210411080511 63 0.0 0.0 0.00 0.00 0.00 5 984.7
20210411075644 64 0.0 0.0 0.00 0.00 0.00 5 984.6
20210411073843 63 0.0 0.0 0.00 0.00 0.00 5 984.5
20210411072805 62 0.0 0.0 0.00 0.00 0.00 5 984.5
20210411071416 62 0.0 0.0 0.00 0.00 0.00 5 984.5
20210411070127 62 0.0 0.0 0.00 0.00 0.00 5 984.5
20210411064915 60 0.0 0.0 0.00 0.00 0.00 5 984.6
20210411063226 61 0.0 0.0 0.00 0.00 0.00 5 984.5
20210411062043 61 0.0 0.0 0.00 0.00 0.00 5 984.5
20210411060652 61 0.0 0.0 0.00 0.00 0.00 6 984.7
20210411055903 61 0.0 0.0 0.00 0.00 0.00 5 984.8
20210411053847 61 0.0 0.0 0.00 0.00 0.00 5 984.7
20210411051039 60 0.0 0.0 0.00 0.00 0.00 5 984.6
20210411050433 60 0.0 0.0 0.00 0.00 0.00 5 984.6
20210411044050 61 0.0 0.0 0.00 0.00 0.00 5 984.7
20210411041321 61 0.0 0.0 0.00 0.00 0.00 5 984.6
20210411035105 61 0.0 0.0 0.00 0.00 0.00 5 984.5
20210411033512 61 0.0 0.0 0.00 0.00 0.00 5 984.5
20210411032904 61 0.0 0.0 0.00 0.00 0.00 5 984.6
20210411030744 63 0.0 0.0 0.00 0.00 0.00 5 984.6
20210411025932 62 0.0 0.0 0.00 0.00 0.00 5 984.7
20210411023951 63 0.0 0.0 0.00 0.00 0.00 5 984.7
20210411022836 63 0.0 0.0 0.00 0.00 0.00 5 984.7
20210411021236 63 0.0 0.0 0.00 0.00 0.00 5 984.7
20210411020333 62 0.0 0.0 0.00 0.00 0.00 5 984.7
20210411014306 63 0.0 0.0 0.00 0.00 0.00 5 984.8
20210411013004 63 0.0 0.0 0.00 0.00 0.00 5 985.0
20210411011604 63 0.0 0.0 0.00 0.00 0.00 5 985.1
20210411010225 63 0.0 0.0 0.00 0.00 0.00 5 985.2
20210411005635 62 0.0 0.0 0.00 0.00 0.00 5 985.3
20210411003644 63 0.0 0.0 0.00 0.00 0.00 5 985.3